Showing default

CORVUS BC4, 43767

Orbit data source: Space-Track

CORVUS BC4, 43767 is a payload satellite owned by Astro Digital (US) in SSO that was launched on Mon, 03 Dec 2018 UTC via an FALCON 9 launch vehicle from the Air Force Western Test Range (AFWTR). Payload-class satellites include a variety of spacecraft equipped with specific instruments for various scientific and technological missions. These include communications satellites like Starlink; space stations such as the ISS; scientific satellites like the Hubble; Earth observation satellites from companies like Planet Labs, Umbra, and HawkEye 360; GPS; miniature CubeSats for education and research; and military/defense satellites.

Loading next visibility...
Identifier
43767, 2018-099K
Orbit
SSO
Country
Flag of USUS
Related business
Manufacturer
Astro Digital
Mission
Operational Commercial Imaging
Bus & Motor
CUBESAT 6U, Unknown motor
Mass
10 kg wet, 10 kg dry
Launch date (UTC)
2018-12-03 (7 years ago)
Launch vehicle
FALCON 9
Launch site
Air Force Western Test Range (AFWTR)
Object type
Payload
Rocket body
Debris
Shape & HBR
Box + 2 Pan, 0.2 m
Radar Cross Section
0.092 m², Small (<0.1 m²)

Expand to show TLE details & history
Last TLE update: 7 hours ago

TLE from 7 hours ago
0 CORVUS BC4
1 43767U 18099K   26125.11422997  .00004127  00000-0  24282-3 0  9990
2 43767  97.4102 169.3588 0009498 141.5795 218.6114 15.12147753405899
Epoch: 2026-05-05T02:44Z
TLE epoch observation values (Epoch: 2026-05-05T02:44:29.469Z)
Latitude
-0.00001°
Longitude
-94.75771°
Altitude
537.861 km
Speed
7.591 km/s
True Right ascension
11h 17m 26s
True Declination
0° 00' 00"
Sunlit
Object was in full shadow at epoch
Visualization orbit readout
Latitude
Unknown
Longitude
Unknown
Altitude
Unknown
Speed
Unknown
Apparent Right ascension
Unknown
Apparent Declination
Unknown
Sunlit
N/A
Visualization observer readout
Local Sidereal Time
17:20:18
Azimuth
Unknown
Elevation
Unknown
Doppler factor
Unknown
Orbital elements
Apogee altitude
533.186 km
Perigee altitude
520.07 km
Semi-major axis
6,904.765 km
Eccentricity
0.00095
Inclination
97.4102°
RAAN
169.3588°
Arg. of periapsis
141.5795°
True anomaly
218.54354°
Mean anomaly
218.6114°
Eccentric anomaly
218.57747°
Mean motion
3.78286 °/min
Orbital period
95.17 mins
BSTAR
0.00024282
Loading maneuver chart data...
Computing Atmospheric mass density...
Loading historical data...
Loading historical data...
Loading historical data...
Loading historical data...
Loading historical data...
Loading historical data...
Loading historical data...

Documentation

Showing up to 5 results
|